Regional Weather Roundup
Issued by NWS Bismarck, ND

Current Version | Previous Version | Text Only | Print | Product List | Glossary On
Versions: 1 2 3 4 5 6 7 8 9 10 11 12 13 14 15 16 17 18 19 20 21 22 23 24 25 26 27 28 29 30 31 32 33 34 35 36 37 38 39 40 41 42 43 44 45 46 47 48 49 50
000
ASUS43 KBIS 150110
RWRBIS

NWR BROADCAST TEXT
NATIONAL WEATHER SERVICE BISMARCK ND
800 PM CDT TUE AUG 14 2018

NOTE: "FAIR" INDICATES FEW OR NO CLOUDS BELOW 12,000 FEET WITH NO
SIGNIFICANT WEATHER AND/OR OBSTRUCTIONS TO VISIBILITY.


CITY           SKY/WX    TMP DP  RH WIND       PRES   REMARKS
WILLISTON      SUNNY     80  50  34 E3        29.95F
MINOT          PTCLDY    76  48  37 S7        29.97S
MINOT AFB      PTCLDY    76  49  38 W8        29.95F
BISMARCK       CLEAR     71  48  43 SE5       30.00F
DICKINSON      CLEAR     73  46  38 SE7       29.99F
GARRISON         N/A     71  47  42 SE5       29.99F
HETTINGER ARPT PTCLDY    72  44  36 SE6       30.02F
JAMESTOWN      CLOUDY    65  56  72 N3        30.00F
CARRINGTON     FAIR      68  46  45 CALM      30.02F
HAZEN          FAIR      73  48  40 E6        30.01S
LINTON         FAIR      70  50  49 E7        30.02S
MANDAN         FAIR      70  50  49 S3        30.01F
OAKES          FAIR      68  59  73 N7        29.99F
RUGBY          FAIR      68  48  49 CALM      30.00S
STANLEY          N/A     72  52  49 S9        29.99F
TIOGA          FAIR      73  48  40 S5        29.99F
WATFORD CITY   FAIR      79  48  34 S8        29.95F
$$

CITY           SKY/WX    TMP DP  RH WIND       PRES   REMARKS
GRAND FORKS    FAIR      67  51  56 NE7       29.97F
GRAND FORKS AF FAIR      67  49  52 E5        29.98F
DEVILS LAKE    FAIR      68  48  48 W3        30.01F
FARGO          FAIR      68  51  54 NE7       29.97S
CANDO          FAIR      68  46  45 W3        30.02F
CAVALIER       FAIR      66  50  55 E3        29.98S
GRAFTON        FAIR      66  50  55 NE6       30.00F
GWINNER        CLEAR     68  57  68 CALM      29.99S
LANGDON        FAIR      68  45  42 W6        30.01S
ROLLA          FAIR      66  54  63 CALM      30.01S
WALHALLA       FAIR      68  52  56 E6        29.99S
$$

CITY           SKY/WX    TMP DP  RH WIND       PRES   REMARKS
ABERDEEN       CLOUDY    70  58  65 NE14      29.97F
MOBRIDGE       CLOUDY    76  48  37 NE7       29.96F
BUFFALO          N/A     72  49  44 SE12      29.97F
RAPID CITY     PTCLDY    66  58  75 S6        30.03S
GLASGOW        SUNNY     83  46  27 SE12      29.90F
SIDNEY         SUNNY     79  51  37 S6        29.94F
WOLF POINT     SUNNY     83  48  29 VRB5      29.91F
GLENDIVE       SUNNY     79  50  36 S7        29.96F
MILES CITY     PTSUNNY   74  54  49 SE5       29.95F
BAKER          MOSUNNY   76  45  33 SE13      30.00F
$$

CITY           SKY/WX    TMP DP  RH WIND       PRES   REMARKS
BILLINGS       SUNNY     75  44  33 E13       29.98S
GREAT FALLS    SUNNY     83  29  14 N3        29.94F
REGINA         MOSUNNY   79  46  31 S3        29.87F
ESTEVAN        MOSUNNY   75  50  41 S7        29.93F
$$




USA.gov is the U.S. government's official web portal to all federal, state and local government web resources and services.